Погода в Каменском

Украина / Днепропетровская область     48°31′22″N   34°36′53″E
темп.,
°C
ветер,
м/с
пор.,
м/с
влажн.,
%
обл.,
%
осадки,
мм/ч
давл.,
гПа
погр.,
м
16 апреля, пт
пт1600:00+8ю5891100 0.1 1012503
03:00+7ююз699298 0.3 1012508
06:00+7ю5893100 0.1 1013574
09:00+7ююз6987100 0.1 1014610
12:00+9ююз7973100 0.2 10151176
15:00+12ююз795394 1.0 10151845
18:00+11ююз695793 1.0 10141493
21:00+6зюз597998 1.4 1017473
17 апреля, сб
сб1700:00+4юз4882100 0.0 1017351
03:00+5ююз5982100 0.1 10171106
06:00+5юз5987100 0.3 1018749
09:00+7зюз677172 0.3 1019948
12:00+8зюз6861100 0.0 10201314
15:00+11з6955100 0.0 10201831
18:00+11з4661100 0.1 10201186
21:00+9ссз2271100 0.1 102157
18 апреля, вс
вс1800:00+7всв2273100 0.0 102049
03:00+7юв227698 0.0 102054
06:00+5ююз348240 0.0 101959
09:00+10ююз345664 0.0 1019450
12:00+14ю44435 0.0 10181589
15:00+16ю4438100 0.0 10172022
18:00+14ю3541100 0.0 1017346
21:00+12ююз334899 0.0 101751
19 апреля, пн
пн1900:00+10ю356489 0.0 1017105
03:00+8ю348097 0.0 101669
06:00+8вюв127795 0.1 101627
09:00+10в4676100 0.3 1015510
12:00+9всв4783100 0.1 1015447
15:00+10всв5584100 0.1 1012595
18:00+10св4586100 0.0 1011551
21:00+10св3692100 0.0 1009316
20 апреля, вт
вт2000:00+9св4898100 1.0 1005370
03:00+9св4799100 5.6 1000318
06:00+10ююв41198100 1.8 997516
09:00+11ю6119590 3.1 996779
12:00+11ю71075100 0.3 9961338
15:00+9ююв5986100 1.5 9961268
18:00+9з479288 2.8 997427
21:00+8з81585100 3.0 10031286